Flag for U.S.A. Weather past 2 weeks in Stockton, California, U.S.A.

Now
76 °F

Sunny.


Feels Like: 78 °F
Forecast: 53 / 87 °F
Wind: 16 mph from West

Location: Stockton Metropolitan Airport

Current Time: May 27, 2015 at 7:44:12 PM

Latest Report: May 27, 2015 at 6:55 PM


Visibility: 10 mi

Pressure: 29.90 "Hg

Humidity: 40%

Dew point: 50 °F

Location of StocktonLocation

Historic Weather in Stockton — Graph

°F

Stockton temperature yesterday

Maximum temperature yesterday: 80 °F (at 4:55 PM)
Minimum temperature yesterday: 51 °F (at 4:55 AM)
Average temperature yesterday: 65 °F

Past Weeks' High & Low Weather Summary

 TemperatureHumidityPressure
High83 °F (May 24, 2:55 PM)93% (May 21, 4:55 AM)30.08 "Hg (May 21, 4:55 AM)
Low48 °F (May 14, 4:55 AM)27% (May 13, 3:55 PM)29.76 "Hg (May 14, 1:55 PM)
Average62 °F63%29.94 "Hg
* Reported May 12 5:55 PM — May 27 5:55 PM, Stockton, Weather by CustomWeather, © 2015

Note: Actual official high and low records may vary slightly from our data, if they occured in-between our weather recording intervals... More about our weather records

Advertising

Stockton weather history for previous 24 hours

 ConditionsComfort  
Time TempWeatherWind HumidityBarometerVisibility
5:55 PM
Wed, May 27
80 °FSunny.10 mph39%29.90 "Hg10 mi
4:55 PM80 °FSunny.10 mph42%29.90 "Hg10 mi
3:55 PM81 °FSunny.12 mph39%29.91 "Hg10 mi
2:55 PM80 °FSunny.13 mph38%29.92 "Hg10 mi
1:55 PM78 °FSunny.7 mph40%29.94 "Hg10 mi
12:55 PM74 °FSunny.12 mph48%29.96 "Hg10 mi
11:55 AM71 °FSunny.9 mph51%29.97 "Hg10 mi
10:55 AM68 °FSunny.9 mph57%29.98 "Hg10 mi
9:55 AM66 °FSunny.7 mph63%29.98 "Hg10 mi
8:55 AM62 °FSunny.6 mph70%29.98 "Hg10 mi
7:55 AM60 °FSunny.8 mph75%29.98 "Hg10 mi
6:55 AM56 °FSunny.5 mph81%29.97 "Hg10 mi
5:55 AM49 °FClear.6 mph90%29.96 "Hg10 mi
4:55 AM51 °FClear.3 mph92%29.95 "Hg10 mi
3:55 AM52 °FClear.6 mph89%29.95 "Hg10 mi
2:55 AM52 °FClear.5 mph89%29.96 "Hg10 mi
1:55 AM54 °FClear.6 mph86%29.96 "Hg10 mi
12:55 AM54 °FClear.5 mph86%29.96 "Hg10 mi
11:55 PM
Tue, May 26
57 °FClear.5 mph74%29.96 "Hg10 mi
10:55 PM59 °FClear.8 mph72%29.95 "Hg10 mi
9:55 PM61 °FClear.14 mph67%29.94 "Hg10 mi
8:55 PM65 °FSunny.12 mph59%29.92 "Hg10 mi
7:55 PM70 °FSunny.12 mph51%29.90 "Hg10 mi
Weather by CustomWeather, © 2015

See weather overviewHow to use our weather pages